Asheville, NC

2:27 AM EDT on April 27, 2017 (GMT -0400)
Asheville Regional

Weather History for KAVL - September, 2011

Change the Weather History Date:

Tuesday, September 6, 2011

  Actual Average Record
Temperature  
Mean Temperature 67 °F 70 °F  
Max Temperature 74 °F 80 °F 95 °F (1954)
Min Temperature 60 °F 59 °F 45 °F (1924)
Degree Days  
Heating Degree Days 0 0  
Month to date heating degree days 0 0  
Since 1 July heating degree days 0 2  
Cooling Degree Days 2 5  
Month to date cooling degree days 50 33  
Year to date cooling degree days 1145 790  
Growing Degree Days 16 (Base 50)    
Moisture  
Dew Point 62 °F    
Average Humidity 80    
Maximum Humidity 93    
Minimum Humidity 66    
Precipitation  
Precipitation 0.29 in 0.13 in 3.26 in (1956)
Month to date precipitation 1.82 0.80  
Year to date precipitation 31.30 32.41  
Snow  
Snow 0.00 in 0.00 in 0.00 in ()
Month to date snowfall 0.0 0.0  
Since 1 July snowfall 0.0 0.0  
Since 1 September snowfall 0.0 0.0  
Snow Depth 0.00 in    
Sea Level Pressure  
Sea Level Pressure 29.75 in    
Wind  
Wind Speed 10 mph (SSE)    
Max Wind Speed 22 mph    
Max Gust Speed 30 mph    
Visibility 9 miles    
Events Rain    
T = Trace of Precipitation, MM = Missing Value Source: NWS Daily Summary

Daily Weather History Graph

Daily Weather History Graph

Search for Another Location

Airport or City:

Trip Planner

Search our weather history database for the weather conditions in past years. The results will help you decide how hot, cold, wet, or windy it might be!

Date:

Astronomy

Sep. 06, 2011 Rise Set
Actual Time 7:05 AM EDT 7:50 PM EDT
Civil Twilight 6:40 AM EDT 8:16 PM EDT
Nautical Twilight 6:09 AM EDT 8:46 PM EDT
Astronomical Twilight 5:38 AM EDT 9:17 PM EDT
Moon 4:16 PM EDT (9/6) 1:29 AM EDT (9/6)
Length of Visible Light 13h 36m
Length of Day
12h 44m
Waxing Gibbous, 70% of the Moon is Illuminated
Sep 6
Waxing Gibbous
Sep 12
Full
Sep 20
Last Quarter
Sep 27
New
Oct 3
First Quarter

Hourly Weather History & Observations

Time (EDT) Temp. Dew Point Humidity Pressure Visibility Wind Dir Wind Speed Gust Speed Precip Events Conditions
12:12 AM 71.6 °F 69.8 °F 94% 29.70 in 5.0 mi SE 11.5 mph 23.0 mph N/A Rain Rain
12:54 AM 72.0 °F 69.1 °F 91% 29.63 in 9.0 mi SSE 19.6 mph 28.8 mph 0.04 in Rain Light Rain
1:28 AM 71.6 °F 69.8 °F 94% 29.68 in 6.0 mi SE 10.4 mph 21.9 mph 0.02 in Rain Light Rain
1:35 AM 71.6 °F 69.8 °F 94% 29.69 in 2.5 mi Variable 6.9 mph 19.6 mph 0.06 in Rain Heavy Rain
1:39 AM 71.6 °F 69.8 °F 94% 29.68 in 3.0 mi SE 10.4 mph 16.1 mph 0.10 in Rain Heavy Rain
1:41 AM 71.6 °F 69.8 °F 94% 29.68 in 3.0 mi SE 9.2 mph 16.1 mph 0.10 in Rain Rain
1:52 AM 71.6 °F 69.8 °F 94% 29.69 in 7.0 mi SE 10.4 mph 19.6 mph 0.11 in Rain Light Rain
1:54 AM 71.1 °F 69.1 °F 93% 29.61 in 7.0 mi SSE 11.5 mph 19.6 mph 0.11 in Rain Light Rain
2:54 AM 72.0 °F 69.1 °F 91% 29.60 in 7.0 mi SSE 10.4 mph - 0.08 in Rain Light Rain
3:54 AM 72.0 °F 68.0 °F 87% 29.60 in 9.0 mi SSE 11.5 mph 18.4 mph 0.03 in Rain Light Rain
4:54 AM 71.1 °F 69.1 °F 93% 29.57 in 6.0 mi SE 9.2 mph 18.4 mph 0.03 in Rain Light Rain
5:54 AM 72.0 °F 68.0 °F 87% 29.58 in 10.0 mi SSE 11.5 mph 19.6 mph 0.01 in   Overcast
6:19 AM 71.6 °F 68.0 °F 88% 29.67 in 10.0 mi SE 6.9 mph - 0.00 in Rain Light Rain
6:54 AM 71.1 °F 68.0 °F 90% 29.60 in 10.0 mi SSE 8.1 mph - 0.00 in   Overcast
7:46 AM 71.6 °F 66.2 °F 83% 29.70 in 10.0 mi SE 9.2 mph - 0.02 in Rain Light Rain
7:54 AM 71.1 °F 66.9 °F 87% 29.63 in 10.0 mi SSE 10.4 mph - 0.02 in   Overcast
8:01 AM 71.6 °F 66.2 °F 83% 29.71 in 8.0 mi SSE 9.2 mph - 0.00 in Rain Light Rain
8:54 AM 71.1 °F 66.0 °F 84% 29.64 in 10.0 mi SSE 8.1 mph 16.1 mph 0.01 in   Scattered Clouds
9:54 AM 71.6 °F 66.2 °F 83% 29.73 in 10.0 mi SSE 11.5 mph - N/A   Mostly Cloudy
10:32 AM 71.6 °F 62.6 °F 73% 29.74 in 10.0 mi South 19.6 mph 29.9 mph N/A   Scattered Clouds
10:54 AM 72.0 °F 62.1 °F 71% 29.67 in 10.0 mi South 13.8 mph - N/A   Scattered Clouds
11:18 AM 71.6 °F 62.6 °F 73% 29.76 in 10.0 mi South 16.1 mph - N/A   Mostly Cloudy
11:37 AM 71.6 °F 62.6 °F 73% 29.77 in 10.0 mi South 16.1 mph - N/A   Mostly Cloudy
11:54 AM 71.6 °F 60.8 °F 69% 29.77 in 10.0 mi South 16.1 mph - N/A   Scattered Clouds
12:54 PM 72.0 °F 59.0 °F 64% 29.70 in 10.0 mi SSW 12.7 mph 23.0 mph N/A   Mostly Cloudy
1:54 PM 69.8 °F 57.2 °F 64% 29.79 in 10.0 mi South 15.0 mph - N/A   Mostly Cloudy
2:07 PM 69.8 °F 59.0 °F 68% 29.79 in 10.0 mi South 12.7 mph - N/A   Overcast
2:33 PM 69.8 °F 59.0 °F 68% 29.79 in 10.0 mi South 12.7 mph - N/A   Overcast
2:42 PM 69.8 °F 59.0 °F 68% 29.79 in 10.0 mi South 10.4 mph - N/A   Overcast
2:52 PM 69.8 °F 59.0 °F 68% 29.79 in 10.0 mi SSE 11.5 mph - N/A   Overcast
2:54 PM 69.1 °F 57.9 °F 68% 29.72 in 10.0 mi South 12.7 mph - N/A   Overcast
3:54 PM 69.1 °F 59.0 °F 70% 29.72 in 10.0 mi South 9.2 mph - 0.00 in   Overcast
4:54 PM 66.9 °F 57.9 °F 73% 29.73 in 10.0 mi South 12.7 mph - N/A   Overcast
5:54 PM 64.0 °F 60.1 °F 87% 29.76 in 8.0 mi South 10.4 mph - 0.00 in Rain Light Rain
6:22 PM 64.4 °F 60.8 °F 88% 29.83 in 10.0 mi South 8.1 mph - 0.00 in   Mostly Cloudy
6:49 PM 64.4 °F 57.2 °F 77% 29.84 in 10.0 mi South 10.4 mph - 0.00 in   Mostly Cloudy
6:54 PM 64.0 °F 57.9 °F 80% 29.77 in 10.0 mi South 6.9 mph - 0.00 in   Mostly Cloudy
7:54 PM 62.6 °F 59.0 °F 88% 29.86 in 10.0 mi SSE 9.2 mph - N/A   Overcast
8:09 PM 62.6 °F 59.0 °F 88% 29.87 in 10.0 mi Calm Calm - N/A   Overcast
8:22 PM 62.6 °F 57.2 °F 82% 29.87 in 10.0 mi SE 5.8 mph - N/A   Overcast
8:54 PM 61.0 °F 57.0 °F 87% 29.82 in 10.0 mi South 9.2 mph - N/A   Overcast
9:01 PM 60.8 °F 57.2 °F 88% 29.89 in 10.0 mi South 8.1 mph - N/A   Overcast
9:19 PM 60.8 °F 57.2 °F 88% 29.89 in 10.0 mi South 4.6 mph - N/A   Overcast
9:28 PM 60.8 °F 57.2 °F 88% 29.89 in 10.0 mi South 3.5 mph - N/A   Overcast
9:36 PM 60.8 °F 57.2 °F 88% 29.89 in 10.0 mi South 5.8 mph - N/A   Overcast
9:54 PM 60.1 °F 55.9 °F 86% 29.83 in 10.0 mi South 5.8 mph - N/A   Overcast
10:15 PM 60.8 °F 57.2 °F 88% 29.90 in 10.0 mi South 4.6 mph - N/A   Overcast
10:30 PM 60.8 °F 57.2 °F 88% 29.90 in 10.0 mi South 3.5 mph - N/A   Overcast
10:54 PM 60.1 °F 57.0 °F 90% 29.85 in 10.0 mi SSW 4.6 mph - N/A   Overcast
11:30 PM 60.8 °F 57.2 °F 88% 29.91 in 10.0 mi South 4.6 mph - N/A   Overcast
11:54 PM 60.8 °F 57.2 °F 88% 29.90 in 10.0 mi Calm Calm - N/A   Overcast